Погода в Новониколаевке

Украина / Донецкая область     48°53′12″N   37°22′27″E
темп.,
°C
ветер,
м/с
пор.,
м/с
влажн.,
%
обл.,
%
осадки,
мм/ч
давл.,
гПа
погр.,
м
15 мая, сб
сб1500:00+15юз33750 0.0 101137
03:00+13зюз33806 0.0 101235
06:00+14юз2278100 0.0 101347
09:00+19зюз34584 0.0 1013445
12:00+23юз46465 0.0 10131498
15:00+24юз57435 0.0 10132226
18:00+23юз35525 0.0 1013380
21:00+16з23656 0.0 101318
16 мая, вс
вс1600:00+15ссв00660 0.0 101411
03:00+15св116711 0.0 101411
06:00+15св22737 0.0 101423
09:00+21св455799 0.0 1013459
12:00+25всв55505 0.0 10121286
15:00+26всв565126 0.0 10101815
18:00+23в486397 0.8 1009218
21:00+18всв486759 0.8 1008107
17 мая, пн
пн1700:00+17всв41373100 0.0 1007227
03:00+16в513745 0.0 1006232
06:00+15в41174100 0.0 1006221
09:00+20вюв7105727 0.0 1005515
12:00+25юв794999 0.0 10051011
15:00+27ююв7951100 0.0 10051486
18:00+22ю61066100 0.0 1005575
21:00+19ююз81376100 0.0 1006494
18 мая, вт
вт1800:00+16ююз61286100 0.0 1007420
03:00+13ююз499884 0.0 1008269
06:00+14ююв4796100 0.0 1010234
09:00+18ююз6874100 0.0 1010721
12:00+22ююз6757100 0.1 10091528
15:00+23ю5752100 0.8 10092053
18:00+19ююв4969100 0.1 1008242
21:00+16ю5138598 1.0 1009437
19 мая, ср
ср1900:00+15ююз61295100 1.2 1009349
03:00+14юз489735 1.2 1010258
06:00+13зюз259328 2.1 1010235
09:00+17зюз3572100 2.3 1011895
12:00+20зюз4557100 0.0 10111421
15:00+21юз2351100 0.0 10101683
18:00+15ююз3694100 2.2 1011275
21:00+14ю2497100 5.3 1011200